This demonstration page uses our WeatherBlox Daily Observations layout. Learn more.

Left ArrowRight Arrow

36.19886, -115.1175

Hourly Observations for July 25, 2021

Temp ( °F °C ) Dew Point ( °F °C ) Humidity (%) Winds ( mph kmh ) Pressure ( in mb ) Visibility ( mi km ) Precip ( " mm )
12:53 am 00:53 Clear 90 32.2 62 16.7 39 39 E 10 17 29.88 1012 10 16 N/A
1:53 am 01:53 Clear 89 31.7 62 16.7 41 41 E 12 19 29.87 1011 10 16 N/A
2:53 am 02:53 Clear 87 30.6 64 17.8 46 46 E 9 15 29.86 1011 10 16 N/A
3:53 am 03:53 Clear 86 30 63 17.2 46 46 E 9 15 29.87 1012 10 16 N/A
4:53 am 04:53 Clear 85 29.4 63 17.2 48 48 E 9 15 29.88 1012 10 16 N/A
5:53 am 05:53 Sunny 84 28.9 63 17.2 49 49 E 8 13 29.91 1013 10 16 N/A
6:53 am 06:53 Sunny 85 29.4 63 17.2 48 48 E 8 13 29.93 1013 10 16 N/A
7:53 am 07:53 Sunny 86 30 63 17.2 46 46 SE 8 13 29.93 1014 10 16 N/A
8:53 am 08:53 Sunny 88 31.1 63 17.2 43 43 ESE 9 15 29.94 1014 10 16 N/A
9:53 am 09:53 Sunny 90 32.2 63 17.2 41 41 NNE 3 6 29.93 1014 10 16 N/A
10:53 am 10:53 Sunny 92 33.3 63 17.2 38 38 SE 7 11 29.93 1013 10 16 N/A
11:53 am 11:53 Sunny 95 35 63 17.2 35 35 SSE 7 11 29.91 1013 10 16 N/A
12:53 pm 12:53 Sunny 96 35.6 63 17.2 34 34 SSE 12 19 29.88 1012 10 16 N/A
1:53 pm 13:53 Sunny 97 36.1 61 16.1 30 30 VRB 5 7 29.85 1011 10 16 N/A
2:53 pm 14:53 Sunny 99 37.2 62 16.7 30 30 E 9 15 29.82 1010 10 16 N/A
3:53 pm 15:53 Sunny 101 38.3 61 16.1 27 27 E 13 20 29.79 1009 10 16 N/A
4:53 pm 16:53 Sunny 101 38.3 60 15.6 26 26 SE 9 15 29.76 1008 10 16 N/A
5:53 pm 17:53 Sunny 100 37.8 59 15 26 26 E 6 9 29.74 1007 10 16 N/A
6:53 pm 18:53 Sunny 101 38.3 58 14.4 24 24 ESE 8 13 29.75 1007 10 16 N/A
7:53 pm 19:53 Mostly Clear 96 35.6 62 16.7 32 32 SSE 20 31 29.74 1007 10 16 N/A
8:21 pm 20:21 Partly Cloudy with Nearby Thunderstorms 92 33.3 65 18.3 41 41 ENE 35 56 29.74 1007 10 16 N/A
8:27 pm 20:27 Partly Cloudy with Nearby Thunderstorms 82 27.8 64 17.8 55 55 NE 41 67 29.75 1008 6 10 N/A
8:30 pm 20:30 Very Windy with Storms Likely 81 27.2 64 17.8 57 57 NE 43 69 29.80 1009 3 5 0.00 0.00
8:53 pm 20:53 Mostly Cloudy with Thunderstorms 76 24.4 70 21.1 82 82 ENE 32 52 29.93 1013 5 8 0.00 0.00
9:12 pm 21:12 Cloudy with Thunderstorms 77 25 66 18.9 69 69 S 16 26 29.79 1009 8 13 N/A
9:19 pm 21:19 Mostly Cloudy with Thunderstorms 77 25 70 21.1 79 79 SSE 18 30 29.83 1010 9 14 N/A
9:51 pm 21:51 Mostly Clear with Light Rain 73 23 70 21 89 89 SW 8 13 29.86 1011 10 16 N/A
9:52 pm 21:52 Mostly Clear with Light Rain 74 23.3 69 20.6 85 85 SW 8 13 29.95 1014 10 16 N/A
10:53 pm 22:53 Mostly Clear with Light Rain 78 25.6 69 20.6 74 74 SSW 8 13 29.88 1012 10 16 N/A
11:53 pm 23:53 Clear 77 25 69 20.6 77 77 NE 8 13 29.91 1013 10 16 N/A

Powered by AerisWeather